IRIDIUM 33 DEB, 35299

Orbit data source: Space-Track

IRIDIUM 33 DEB, 35299 is space debris in LEO originally from a launch on Sun, 14 Sep 1997 UTC launched from the Tyuratam Missile And Space Complex (TTMTR). The debris from Iridium 33, an American commercial communications satellite, has been tracked extensively since its accidental collision with the defunct Russian satellite Cosmos 2251 in 2009. This event, occurring at high speed in low Earth orbit (LEO), generated thousands of pieces of space debris, significantly increasing the risk of further collisions. The Iridium 33 debris cloud has impacted space traffic management and orbital debris mitigation strategies, making it a subject of ongoing study in space situational awareness.

Loading next visibility...
Identifier
35299, 1997-051PP
Orbit
LEO
Country
Flag of USUS
Related business
Manufacturer
Unknown
Mission
Spacecraft
Bus & Motor
Unknown
Mass
Unknown
Launch date (UTC)
1997-09-14 (28 years ago)
Launch vehicle
Unknown
Launch site
Tyuratam Missile And Space Complex (TTMTR)
Object type
Payload
Rocket body
Debris
Shape & HBR
Unknown shape, 0.1 m
Radar Cross Section
Small (<0.1 m²)

Expand to show TLE details & history
Last TLE update: 21 hours ago

TLE from 21 hours ago
0 IRIDIUM 33 DEB
1 35299U 97051PP  25352.10431822  .00001971  00000-0  59609-3 0  9998
2 35299  86.2881  30.8512 0058857  85.3219 304.2144 14.40886995864081
Epoch: 2025-12-18T02:30Z
TLE epoch observation values (Epoch: 2025-12-18T02:30:13.094Z)
Latitude
28.95585°
Longitude
-91.62188°
Altitude
735.846 km
Speed
7.502 km/s
True Right ascension
02h 11m 35s
True Declination
28° 48' 36"
Sunlit
Object was in full shadow at epoch
Visualization orbit readout
Latitude
Unknown
Longitude
Unknown
Altitude
Unknown
Speed
Unknown
Apparent Right ascension
Unknown
Apparent Declination
Unknown
Sunlit
N/A
Visualization observer readout
Local Sidereal Time
22:50:25
Azimuth
Unknown
Elevation
Unknown
Doppler factor
Unknown
Orbital elements
Apogee altitude
794.495 km
Perigee altitude
710.558 km
Semi-major axis
7,130.663 km
Eccentricity
0.00589
Inclination
86.2881°
RAAN
30.8512°
Arg. of periapsis
85.3219°
True anomaly
303.65436°
Mean anomaly
304.2144°
Eccentric anomaly
303.93461°
Mean motion
3.60453 °/min
Orbital period
99.87 mins
BSTAR
0.00059609
Loading maneuver chart data...
Computing Atmospheric mass density...
Loading historical data...
Loading historical data...
Loading historical data...
Loading historical data...
Loading historical data...
Loading historical data...
Loading historical data...

Documentation

Showing up to 5 results
|